Powrót do katalogu

PEGASUS DEB

AktywnyPO
NORAD 39309·DEBRIS·🇺🇸 United States

Wystrzelony May 19, 1994 z Vandenberg Space Force Base

Loading…

Następne Przeloty (najbliższe 24 godziny)

TLE

NieaktualneSource: Space-Track

Epoka: Aug 25, 2026, 04:04 UTC

1 39309U 94029AEU 26237.16970772  .00003797  00000-0  72605-3 0  9996
2 39309  81.7415 187.5329 0230145 346.3110  13.1905 14.48088641747652

Śledź PEGASUS DEB w czasie rzeczywistym z AllMySat

Download on the App Store